This is the latest recevied weather packets stored in our database for station/object K3HW. If no packets are shown the sender has not sent any weather packets the latest 1 day(s).
| Time | Temp. | Humidity | Pressure | Rain* | Wind** | Luminosity | Snow |
|---|---|---|---|---|---|---|---|
| 1778031171 | 22.78° C | 48% | 1013.3 hPa | 0 mm | 0 m/s | 0 W/m² | - |
| 1778030868 | 23.33° C | 48% | 1013.3 hPa | 0 mm | 0 m/s | 0 W/m² | - |
| 1778030564 | 23.33° C | 47% | 1013.3 hPa | 0 mm | 0 m/s | 0 W/m² | - |
| 1778030262 | 23.33° C | 47% | 1013.1 hPa | 0 mm | 0 m/s | 0 W/m² | - |
| 1778029958 | 23.33° C | 46% | 1013.2 hPa | 0 mm | 0 m/s | 0 W/m² | - |
| 1778029657 | 23.33° C | 46% | 1013.1 hPa | 0 mm | 0 m/s | 0 W/m² | - |
| 1778029353 | 23.33° C | 46% | 1013.1 hPa | 0 mm | 0 m/s | 0 W/m² | - |
| 1778029051 | 23.33° C | 47% | 1013 hPa | 0 mm | 0 m/s | 0 W/m² | - |
| 1778028747 | 23.33° C | 47% | 1012.8 hPa | 0 mm | 0 m/s | 0 W/m² | - |
| 1778028443 | 23.89° C | 46% | 1012.8 hPa | 0 mm | 0 m/s | 0 W/m² | - |
| 1778028141 | 23.89° C | 46% | 1012.9 hPa | 0 mm | 0 m/s | 0 W/m² | - |
| 1778027837 | 23.89° C | 45% | 1013 hPa | 0 mm | 0 m/s | 0 W/m² | - |
| 1778027533 | 23.89° C | 47% | 1012.5 hPa | 0 mm | 0 m/s | 0 W/m² | - |
| 1778027229 | 23.89° C | 45% | 1012.9 hPa | 0 mm | 0 m/s | 0 W/m² | - |
| 1778026926 | 24.44° C | 45% | 1012.6 hPa | 0 mm | 0 m/s | 0 W/m² | - |
| 1778026621 | 23.89° C | 44% | 1012.6 hPa | 0 mm | 0 m/s | 0 W/m² | - |
| 1778026319 | 24.44° C | 43% | 1012.4 hPa | 0 mm | 0 m/s | 0 W/m² | - |
| 1778026016 | 25° C | 41% | 1012.7 hPa | 0 mm | 0 m/s | 0 W/m² | - |
| 1778025713 | 25° C | 40% | 1012.4 hPa | 0 mm | 0 m/s | 1 W/m² | - |
| 1778025412 | 25° C | 42% | 1012.4 hPa | 0 mm | 0 m/s | 1 W/m² | - |
| 1778025109 | 25° C | 41% | 1012.5 hPa | 0 mm | 0 m/s | 2 W/m² | - |
| 1778024805 | 25° C | 41% | 1012.3 hPa | 0 mm | 0 m/s | 3 W/m² | - |
| 1778024502 | 25° C | 40% | 1012.2 hPa | 0 mm | 0 m/s | 4 W/m² | - |
| 1778024199 | 25.56° C | 41% | 1012.4 hPa | 0 mm | 0 m/s | 6 W/m² | - |
| 1778023897 | 25.56° C | 41% | 1012.4 hPa | 0 mm | 0 m/s | 8 W/m² | - |
* Rain latest hour (hover to see other rain measurements)
** Current wind speed in m/s (hover to see current wind gust speed)